Time,TemperatureF,DewpointF,PressureIn,WindDirection,WindDirectionDegrees,WindSpeedMPH,WindSpeedGustMPH,Humidity,HourlyPrecipIn,Conditions,Clouds,dailyrainin,SoftwareType,DateUTC
2013-08-10 00:03:00,81.3,79.0,30.11,North,5,19.0,-999.0,92,-99.99,,,0.00,weatherlink.com 1.10,2013-08-10 04:03:00,
2013-08-10 00:18:00,81.4,79.0,30.12,North,5,15.0,-999.0,92,-99.99,,,0.00,weatherlink.com 1.10,2013-08-10 04:18:00,
2013-08-10 00:33:00,81.2,79.0,30.12,North,5,16.0,-999.0,92,-99.99,,,0.00,weatherlink.com 1.10,2013-08-10 04:33:00,
2013-08-10 00:48:00,81.2,79.0,30.12,North,5,19.0,-999.0,93,-99.99,,,0.00,weatherlink.com 1.10,2013-08-10 04:48:00,
2013-08-10 01:03:00,81.1,79.0,30.12,North,5,14.0,-999.0,93,-99.99,,,0.00,weatherlink.com 1.10,2013-08-10 05:03:00,
2013-08-10 01:18:00,81.0,79.0,30.12,North,5,19.0,-999.0,92,-99.99,,,0.00,weatherlink.com 1.10,2013-08-10 05:18:00,
2013-08-10 01:33:00,81.0,79.0,30.12,North,5,15.0,-999.0,92,-99.99,,,0.00,weatherlink.com 1.10,2013-08-10 05:33:00,
2013-08-10 01:48:00,81.0,79.0,30.11,North,5,21.0,-999.0,93,-99.99,,,0.00,weatherlink.com 1.10,2013-08-10 05:48:00,
2013-08-10 02:03:00,81.0,79.0,30.11,North,5,18.0,-999.0,93,-99.99,,,0.00,weatherlink.com 1.10,2013-08-10 06:03:00,
2013-08-10 02:18:00,80.8,79.0,30.11,North,5,13.0,-999.0,93,-99.99,,,0.00,weatherlink.com 1.10,2013-08-10 06:18:00,
2013-08-10 02:33:00,80.8,79.0,30.12,North,5,14.0,-999.0,93,-99.99,,,0.00,weatherlink.com 1.10,2013-08-10 06:33:00,
2013-08-10 02:48:00,80.5,78.0,30.11,North,5,11.0,-999.0,93,-99.99,,,0.00,weatherlink.com 1.10,2013-08-10 06:48:00,
2013-08-10 03:03:00,80.4,78.0,30.11,North,5,12.0,-999.0,93,-99.99,,,0.00,weatherlink.com 1.10,2013-08-10 07:03:00,
2013-08-10 03:18:00,80.3,78.0,30.11,North,5,14.0,-999.0,93,-99.99,,,0.00,weatherlink.com 1.10,2013-08-10 07:18:00,
2013-08-10 03:33:00,80.3,79.0,30.11,North,5,14.0,-999.0,94,-99.99,,,0.00,weatherlink.com 1.10,2013-08-10 07:33:00,
2013-08-10 03:48:00,80.3,78.0,30.11,North,5,14.0,-999.0,93,-99.99,,,0.00,weatherlink.com 1.10,2013-08-10 07:48:00,
2013-08-10 04:03:00,80.2,78.0,30.11,North,5,11.0,-999.0,93,-99.99,,,0.00,weatherlink.com 1.10,2013-08-10 08:03:00,
2013-08-10 04:18:00,80.1,78.0,30.11,North,5,12.0,-999.0,93,-99.99,,,0.00,weatherlink.com 1.10,2013-08-10 08:18:00,
2013-08-10 04:33:00,80.1,78.0,30.11,North,5,11.0,-999.0,93,-99.99,,,0.00,weatherlink.com 1.10,2013-08-10 08:33:00,
2013-08-10 04:48:00,80.0,78.0,30.11,North,5,11.0,-999.0,93,-99.99,,,0.00,weatherlink.com 1.10,2013-08-10 08:48:00,
2013-08-10 05:03:00,80.0,78.0,30.11,North,5,8.0,-999.0,94,-99.99,,,0.00,weatherlink.com 1.10,2013-08-10 09:03:00,
2013-08-10 05:18:00,79.9,78.0,30.12,North,5,13.0,-999.0,94,-99.99,,,0.00,weatherlink.com 1.10,2013-08-10 09:18:00,
2013-08-10 05:33:00,79.9,78.0,30.12,North,5,14.0,-999.0,94,-99.99,,,0.00,weatherlink.com 1.10,2013-08-10 09:33:00,
2013-08-10 05:48:00,79.9,78.0,30.12,North,5,14.0,-999.0,94,-99.99,,,0.00,weatherlink.com 1.10,2013-08-10 09:48:00,
2013-08-10 06:03:00,79.9,78.0,30.12,North,5,13.0,-999.0,94,-99.99,,,0.00,weatherlink.com 1.10,2013-08-10 10:03:00,
2013-08-10 06:18:00,79.9,78.0,30.12,North,5,15.0,-999.0,94,-99.99,,,0.00,weatherlink.com 1.10,2013-08-10 10:18:00,
2013-08-10 06:33:00,79.9,78.0,30.12,North,5,14.0,-999.0,94,-99.99,,,0.00,weatherlink.com 1.10,2013-08-10 10:33:00,
2013-08-10 06:48:00,80.0,78.0,30.13,North,5,15.0,-999.0,94,-99.99,,,0.00,weatherlink.com 1.10,2013-08-10 10:48:00,
2013-08-10 07:03:00,79.9,78.0,30.13,North,5,13.0,-999.0,94,-99.99,,,0.00,weatherlink.com 1.10,2013-08-10 11:03:00,
2013-08-10 07:18:00,80.0,78.0,30.13,North,5,12.0,-999.0,94,-99.99,,,0.00,weatherlink.com 1.10,2013-08-10 11:18:00,
2013-08-10 07:33:00,80.1,78.0,30.13,North,5,12.0,-999.0,94,-99.99,,,0.00,weatherlink.com 1.10,2013-08-10 11:33:00,
2013-08-10 07:48:00,80.2,78.0,30.13,North,5,15.0,-999.0,94,-99.99,,,0.00,weatherlink.com 1.10,2013-08-10 11:48:00,
2013-08-10 08:03:00,80.5,79.0,30.13,North,5,13.0,-999.0,94,-99.99,,,0.00,weatherlink.com 1.10,2013-08-10 12:03:00,
2013-08-10 08:18:00,80.8,79.0,30.13,North,5,12.0,-999.0,93,-99.99,,,0.00,weatherlink.com 1.10,2013-08-10 12:18:00,
2013-08-10 08:33:00,80.9,79.0,30.14,North,5,14.0,-999.0,93,-99.99,,,0.00,weatherlink.com 1.10,2013-08-10 12:33:00,
2013-08-10 08:48:00,81.2,79.0,30.13,North,5,12.0,-999.0,92,-99.99,,,0.00,weatherlink.com 1.10,2013-08-10 12:48:00,
2013-08-10 09:03:00,81.4,79.0,30.14,North,5,16.0,-999.0,92,-99.99,,,0.00,weatherlink.com 1.10,2013-08-10 13:03:00,
2013-08-10 09:18:00,81.8,79.0,30.14,North,5,15.0,-999.0,91,-99.99,,,0.00,weatherlink.com 1.10,2013-08-10 13:18:00,
2013-08-10 09:33:00,81.9,79.0,30.13,North,5,13.0,-999.0,91,-99.99,,,0.00,weatherlink.com 1.10,2013-08-10 13:33:00,
2013-08-10 09:48:00,81.9,79.0,30.14,North,5,16.0,-999.0,91,-99.99,,,0.00,weatherlink.com 1.10,2013-08-10 13:48:00,
2013-08-10 10:03:00,82.1,79.0,30.13,North,5,17.0,-999.0,90,-99.99,,,0.00,weatherlink.com 1.10,2013-08-10 14:03:00,
2013-08-10 10:18:00,82.1,79.0,30.13,North,5,10.0,-999.0,90,-99.99,,,0.00,weatherlink.com 1.10,2013-08-10 14:18:00,
2013-08-10 10:33:00,82.3,79.0,30.14,North,5,16.0,-999.0,90,-99.99,,,0.00,weatherlink.com 1.10,2013-08-10 14:33:00,
2013-08-10 10:48:00,83.0,80.0,30.14,North,5,11.0,-999.0,89,-99.99,,,0.00,weatherlink.com 1.10,2013-08-10 14:48:00,
2013-08-10 11:03:00,83.5,80.0,30.14,North,5,12.0,-999.0,88,-99.99,,,0.00,weatherlink.com 1.10,2013-08-10 15:03:00,
2013-08-10 11:18:00,84.1,80.0,30.14,North,5,16.0,-999.0,88,-99.99,,,0.00,weatherlink.com 1.10,2013-08-10 15:18:00,
2013-08-10 11:34:00,84.1,80.0,30.14,North,5,16.0,-999.0,87,-99.99,,,0.00,weatherlink.com 1.10,2013-08-10 15:34:00,
2013-08-10 11:49:00,84.0,80.0,30.14,North,5,12.0,-999.0,87,-99.99,,,0.00,weatherlink.com 1.10,2013-08-10 15:49:00,
2013-08-10 12:04:00,84.2,80.0,30.14,North,5,16.0,-999.0,86,-99.99,,,0.00,weatherlink.com 1.10,2013-08-10 16:04:00,
2013-08-10 12:19:00,84.4,80.0,30.13,North,5,10.0,-999.0,86,-99.99,,,0.00,weatherlink.com 1.10,2013-08-10 16:19:00,
2013-08-10 12:34:00,84.1,80.0,30.13,North,5,15.0,-999.0,86,-99.99,,,0.00,weatherlink.com 1.10,2013-08-10 16:34:00,
2013-08-10 12:49:00,84.2,80.0,30.13,North,5,13.0,-999.0,86,-99.99,,,0.00,weatherlink.com 1.10,2013-08-10 16:49:00,
2013-08-10 13:04:00,84.3,80.0,30.12,North,5,13.0,-999.0,86,-99.99,,,0.00,weatherlink.com 1.10,2013-08-10 17:04:00,
2013-08-10 13:19:00,84.4,80.0,30.12,North,5,14.0,-999.0,86,-99.99,,,0.00,weatherlink.com 1.10,2013-08-10 17:19:00,
2013-08-10 13:34:00,84.3,80.0,30.12,North,5,17.0,-999.0,87,-99.99,,,0.00,weatherlink.com 1.10,2013-08-10 17:34:00,
2013-08-10 13:49:00,84.5,80.0,30.12,North,5,17.0,-999.0,87,-99.99,,,0.00,weatherlink.com 1.10,2013-08-10 17:49:00,
2013-08-10 14:04:00,84.5,80.0,30.11,North,5,16.0,-999.0,87,-99.99,,,0.00,weatherlink.com 1.10,2013-08-10 18:04:00,
2013-08-10 14:19:00,84.5,80.0,30.11,North,5,14.0,-999.0,86,-99.99,,,0.00,weatherlink.com 1.10,2013-08-10 18:19:00,
2013-08-10 14:34:00,84.3,80.0,30.11,North,5,14.0,-999.0,87,-99.99,,,0.00,weatherlink.com 1.10,2013-08-10 18:34:00,
2013-08-10 14:49:00,84.2,80.0,30.10,North,5,15.0,-999.0,86,-99.99,,,0.00,weatherlink.com 1.10,2013-08-10 18:49:00,
2013-08-10 15:04:00,84.2,80.0,30.09,North,5,20.0,-999.0,86,-99.99,,,0.00,weatherlink.com 1.10,2013-08-10 19:04:00,
2013-08-10 15:19:00,84.2,80.0,30.09,North,5,18.0,-999.0,86,-99.99,,,0.00,weatherlink.com 1.10,2013-08-10 19:19:00,
2013-08-10 15:34:00,84.2,79.0,30.08,North,5,18.0,-999.0,85,-99.99,,,0.00,weatherlink.com 1.10,2013-08-10 19:34:00,
2013-08-10 15:49:00,84.3,79.0,30.08,North,5,19.0,-999.0,85,-99.99,,,0.00,weatherlink.com 1.10,2013-08-10 19:49:00,
2013-08-10 16:04:00,84.1,79.0,30.08,North,5,15.0,-999.0,85,-99.99,,,0.00,weatherlink.com 1.10,2013-08-10 20:04:00,
2013-08-10 16:19:00,84.1,79.0,30.07,North,5,19.0,-999.0,85,-99.99,,,0.00,weatherlink.com 1.10,2013-08-10 20:19:00,
2013-08-10 16:34:00,84.1,79.0,30.07,North,5,18.0,-999.0,85,-99.99,,,0.00,weatherlink.com 1.10,2013-08-10 20:34:00,
2013-08-10 16:49:00,83.9,79.0,30.07,North,5,19.0,-999.0,85,-99.99,,,0.00,weatherlink.com 1.10,2013-08-10 20:49:00,
2013-08-10 17:04:00,83.8,79.0,30.07,North,5,22.0,-999.0,86,-99.99,,,0.00,weatherlink.com 1.10,2013-08-10 21:04:00,
2013-08-10 17:19:00,83.6,79.0,30.07,North,5,20.0,-999.0,86,-99.99,,,0.00,weatherlink.com 1.10,2013-08-10 21:19:00,
2013-08-10 17:34:00,83.4,79.0,30.07,North,5,19.0,-999.0,86,-99.99,,,0.00,weatherlink.com 1.10,2013-08-10 21:34:00,
2013-08-10 17:49:00,83.3,79.0,30.07,North,5,18.0,-999.0,86,-99.99,,,0.00,weatherlink.com 1.10,2013-08-10 21:49:00,
2013-08-10 18:04:00,83.2,79.0,30.06,North,5,17.0,-999.0,87,-99.99,,,0.00,weatherlink.com 1.10,2013-08-10 22:04:00,
2013-08-10 18:19:00,82.8,79.0,30.06,North,5,21.0,-999.0,88,-99.99,,,0.00,weatherlink.com 1.10,2013-08-10 22:19:00,
2013-08-10 18:34:00,82.5,79.0,30.06,North,5,21.0,-999.0,89,-99.99,,,0.00,weatherlink.com 1.10,2013-08-10 22:34:00,
2013-08-10 18:49:00,82.1,79.0,30.07,North,5,18.0,-999.0,90,-99.99,,,0.00,weatherlink.com 1.10,2013-08-10 22:49:00,
2013-08-10 19:04:00,81.8,79.0,30.07,North,5,20.0,-999.0,90,-99.99,,,0.00,weatherlink.com 1.10,2013-08-10 23:04:00,
2013-08-10 19:19:00,81.7,79.0,30.08,North,5,19.0,-999.0,90,-99.99,,,0.00,weatherlink.com 1.10,2013-08-10 23:19:00,
2013-08-10 19:34:00,81.4,79.0,30.08,North,5,22.0,-999.0,91,-99.99,,,0.00,weatherlink.com 1.10,2013-08-10 23:34:00,
2013-08-10 19:49:00,81.4,79.0,30.08,North,5,18.0,-999.0,91,-99.99,,,0.00,weatherlink.com 1.10,2013-08-10 23:49:00,
2013-08-10 20:04:00,81.4,79.0,30.09,North,5,22.0,-999.0,91,-99.99,,,0.00,weatherlink.com 1.10,2013-08-11 00:04:00,
2013-08-10 20:19:00,81.3,79.0,30.10,North,5,20.0,-999.0,92,-99.99,,,0.00,weatherlink.com 1.10,2013-08-11 00:19:00,
2013-08-10 20:34:00,81.1,79.0,30.10,North,5,20.0,-999.0,92,-99.99,,,0.00,weatherlink.com 1.10,2013-08-11 00:34:00,
2013-08-10 20:49:00,81.0,79.0,30.10,North,5,17.0,-999.0,92,-99.99,,,0.00,weatherlink.com 1.10,2013-08-11 00:49:00,
2013-08-10 21:04:00,80.9,78.0,30.12,North,5,15.0,-999.0,92,-99.99,,,0.00,weatherlink.com 1.10,2013-08-11 01:04:00,
2013-08-10 21:19:00,80.7,78.0,30.12,North,5,14.0,-999.0,92,-99.99,,,0.00,weatherlink.com 1.10,2013-08-11 01:19:00,
2013-08-10 21:34:00,80.7,78.0,30.14,North,5,10.0,-999.0,92,-99.99,,,0.00,weatherlink.com 1.10,2013-08-11 01:34:00,
2013-08-10 21:49:00,81.1,79.0,30.16,North,5,8.0,-999.0,93,-99.99,,,0.00,weatherlink.com 1.10,2013-08-11 01:49:00,
2013-08-10 22:04:00,79.9,76.0,30.16,North,5,1.0,-999.0,87,-99.99,,,0.00,weatherlink.com 1.10,2013-08-11 02:04:00,
2013-08-10 22:19:00,80.3,76.0,30.16,North,5,2.0,-999.0,86,-99.99,,,0.00,weatherlink.com 1.10,2013-08-11 02:19:00,
2013-08-10 22:34:00,80.4,75.0,30.14,North,5,2.0,-999.0,83,-99.99,,,0.00,weatherlink.com 1.10,2013-08-11 02:34:00,
2013-08-10 23:04:00,80.6,76.0,30.14,North,5,0.0,-999.0,85,-99.99,,,0.00,weatherlink.com 1.10,2013-08-11 03:04:00,
2013-08-10 23:34:00,79.8,75.0,30.14,North,5,6.0,-999.0,84,-99.99,,,0.00,weatherlink.com 1.10,2013-08-11 03:34:00,
2013-08-10 23:49:00,79.5,74.0,30.13,North,5,3.0,-999.0,83,-99.99,,,0.00,weatherlink.com 1.10,2013-08-11 03:49:00,